Weather History for Wheeler AAF, HI

Change the Weather History Date:

Tuesday, May 14, 2013

  Actual Average Record
Temperature  
Mean Temperature 74 °F -  
Max Temperature 80 °F 76 °F 84 °F (2002)
Min Temperature 69 °F 63 °F 57 °F (2012)
Cooling Degree Days 10    
Growing Degree Days 24 (Base 50)    
Moisture  
Dew Point 65 °F    
Average Humidity 76    
Maximum Humidity 90    
Minimum Humidity 59    
Precipitation  
Precipitation 0.00 in - - ()
Sea Level Pressure  
Sea Level Pressure 30.06 in    
Wind  
Wind Speed 5 mph (East)    
Max Wind Speed 16 mph    
Max Gust Speed 22 mph    
Visibility 10 miles    
Events      
Averages and records for this station are not official NWS values.
T = Trace of Precipitation, MM = Missing Value Source: NWS Daily Summary

Daily Weather History Graph

Daily Weather History Graph

Search for Another Location

Airport:

Trip Planner

Search our weather history database for the weather conditions in past years. The results will help you decide how hot, cold, wet, or windy it might be!

Date:

Astronomy

May. 14, 2013 Rise Set
Actual Time 5:53 AM HST 7:03 PM HST
Civil Twilight 5:30 AM HST 7:27 PM HST
Nautical Twilight 5:01 AM HST 7:55 PM HST
Astronomical Twilight 4:32 AM HST 8:24 PM HST
Moon 9:42 AM HST (5/14) 11:02 PM HST (5/14)
Length of Visible Light 13h 57m
Length of Day
13h 09m
Waxing Crescent, 20% of the Moon is Illuminated
May 14
Waxing Crescent
May 17
First Quarter
May 24
Full
May 31
Last Quarter
Jun 8
New

Hourly Weather History & Observations

Time (HST) Temp. Heat Index Dew Point Humidity Pressure Visibility Wind Dir Wind Speed Gust Speed Precip Events Conditions
12:55 AM 72.9 °F - 64.9 °F 76% 30.05 in 10.0 mi ENE 8.1 mph - N/A   Mostly Cloudy
1:55 AM 72.3 °F - 64.9 °F 78% 30.04 in 10.0 mi SE 3.5 mph - N/A   Overcast
2:55 AM 71.1 °F - 65.5 °F 82% 30.03 in 10.0 mi Calm Calm - N/A   Mostly Cloudy
3:55 AM 71.4 °F - 66.0 °F 83% 30.03 in 10.0 mi SSE 3.5 mph - N/A   Overcast
4:32 AM 71.6 °F - 66.2 °F 83% 30.03 in 10.0 mi Calm Calm - N/A   Overcast
4:33 AM 71.6 °F - 66.2 °F 83% 30.03 in 10.0 mi Calm Calm - N/A   Overcast
4:34 AM 71.6 °F - 66.2 °F 83% 30.03 in 9.0 mi Calm Calm - N/A   Mostly Cloudy
4:35 AM 71.6 °F - 66.2 °F 83% 30.03 in 9.0 mi Calm Calm - N/A   Light Drizzle
4:36 AM 71.6 °F - 66.2 °F 83% 30.03 in 9.0 mi ESE 3.5 mph - N/A   Light Drizzle
4:44 AM 71.6 °F - 66.2 °F 83% 30.03 in 10.0 mi Calm Calm - N/A   Scattered Clouds
4:55 AM 70.5 °F - 66.6 °F 87% 30.03 in 10.0 mi Variable 4.6 mph - 0.00 in   Scattered Clouds
5:04 AM 71.6 °F - 66.2 °F 83% 30.03 in 9.0 mi East 9.2 mph - N/A   Light Drizzle
5:17 AM 71.6 °F - 66.2 °F 83% 30.03 in 10.0 mi Variable 3.5 mph - N/A   Partly Cloudy
5:44 AM 69.8 °F - 66.2 °F 88% 30.04 in 10.0 mi Calm Calm - N/A   Drizzle
5:54 AM 69.8 °F - 66.2 °F 88% 30.04 in 10.0 mi Calm Calm - N/A   Partly Cloudy
5:55 AM 70.0 °F - 66.9 °F 90% 30.04 in 10.0 mi Calm Calm - 0.00 in   Partly Cloudy
6:55 AM 70.9 °F - 66.2 °F 85% 30.06 in 10.0 mi ESE 4.6 mph - N/A   Partly Cloudy
7:03 AM 71.6 °F - 66.2 °F 83% 30.06 in 10.0 mi ESE 5.8 mph - N/A   Light Drizzle
7:12 AM 71.6 °F - 66.2 °F 83% 30.06 in 10.0 mi East 6.9 mph - N/A   Partly Cloudy
7:32 AM 71.6 °F - 66.2 °F 83% 30.06 in 9.0 mi East 8.1 mph - N/A   Light Drizzle
7:43 AM 71.6 °F - 66.2 °F 83% 30.06 in 10.0 mi East 8.1 mph - N/A   Scattered Clouds
7:55 AM 72.7 °F - 66.0 °F 80% 30.06 in 10.0 mi East 6.9 mph - 0.00 in   Partly Cloudy
8:22 AM 73.4 °F - 66.2 °F 78% 30.07 in 10.0 mi ESE 8.1 mph - N/A   Light Drizzle
8:31 AM 73.4 °F - 66.2 °F 78% 30.07 in 10.0 mi ESE 9.2 mph - N/A   Partly Cloudy
8:55 AM 74.1 °F - 65.8 °F 75% 30.07 in 10.0 mi ESE 8.1 mph - 0.00 in   Scattered Clouds
9:55 AM 77.4 °F - 66.2 °F 68% 30.08 in 10.0 mi East 9.2 mph - N/A   Mostly Cloudy
10:55 AM 78.6 °F - 66.0 °F 65% 30.08 in 10.0 mi East 8.1 mph - N/A   Mostly Cloudy
11:55 AM 80.2 °F 82.2 °F 65.5 °F 61% 30.07 in 10.0 mi East 12.7 mph 17.3 mph N/A   Scattered Clouds
12:55 PM 79.5 °F - 65.7 °F 62% 30.06 in 10.0 mi East 16.1 mph - N/A   Mostly Cloudy
1:55 PM 80.1 °F 82.0 °F 65.5 °F 61% 30.05 in 10.0 mi ESE 11.5 mph - N/A   Mostly Cloudy
2:55 PM 79.7 °F - 64.0 °F 59% 30.05 in 10.0 mi ESE 12.7 mph 21.9 mph N/A   Mostly Cloudy
3:55 PM 79.3 °F - 64.9 °F 61% 30.05 in 10.0 mi East 9.2 mph 18.4 mph N/A   Mostly Cloudy
4:55 PM 78.6 °F - 63.9 °F 60% 30.04 in 10.0 mi ESE 10.4 mph - N/A   Scattered Clouds
5:55 PM 77.0 °F - 63.9 °F 64% 30.06 in 10.0 mi East 10.4 mph - N/A   Scattered Clouds
6:55 PM 74.8 °F - 63.0 °F 66% 30.08 in 10.0 mi ESE 8.1 mph - N/A   Scattered Clouds
7:55 PM 73.8 °F - 62.6 °F 68% 30.09 in 10.0 mi East 5.8 mph - N/A   Scattered Clouds
8:55 PM 73.4 °F - 63.7 °F 71% 30.10 in 10.0 mi Variable 3.5 mph - N/A   Scattered Clouds
9:55 PM 73.0 °F - 63.7 °F 72% 30.10 in 10.0 mi East 10.4 mph - N/A   Clear
10:55 PM 73.0 °F - 63.7 °F 72% 30.10 in 10.0 mi East 6.9 mph - N/A   Partly Cloudy
11:55 PM 72.7 °F - 63.3 °F 72% 30.10 in 10.0 mi East 9.2 mph - N/A   Scattered Clouds